Regional Weather Roundup
Issued by NWS Mobile, AL

Home | Current Version | Previous Version | Text Only | Print | Product List | Glossary On
Versions: 1 2 3 4 5 6 7 8 9 10 11 12 13 14 15 16 17 18 19 20 21 22 23 24 25 26 27 28 29 30 31 32 33 34 35 36 37 38 39 40 41 42 43 44 45 46 47 48 49 50
000
ASUS44 KMOB 070012
RWRMOB
REGIONAL WEATHER ROUNDUP
NATIONAL WEATHER SERVICE MOBILE AL
600 PM CST SAT FEB 06 2016

NOTE: "FAIR" INDICATES FEW OR NO CLOUDS BELOW 12,000 FEET WITH NO
      SIGNIFICANT WEATHER AND/OR OBSTRUCTIONS TO VISIBILITY.

  * THESE STATIONS ARE PART OF THE UNIVERSITY OF SOUTH ALABAMA
    MESONET AND ARE NOT UNDER NWS OR FAA QUALITY CONTROL.

ALZ061>064-070100-
COASTAL ALABAMA

CITY           SKY/WX    TMP DP  RH WIND       PRES   REMARKS
MOBILE REG APT PTCLDY    49  24  37 N5        30.25R
6HR MIN TEMP:  49; 6HR MAX TEMP:  57;

BROOKLEY FIELD CLEAR     49  25  39 N5        30.26R
6HR MIN TEMP:  49; 6HR MAX TEMP:  58;

USA CAMPUS*    NOT AVBL
DOG RIVER*     NOT AVBL


CITY           SKY/WX    TMP DP  RH WIND       PRES   REMARKS
MOUNT VERNON*  NOT AVBL
SARALAND*      NOT AVBL
BAY MINETTE*   NOT AVBL
LOXLEY*        NOT AVBL
ROBERTSDALE*   NOT AVBL
FAIRHOPE*      NOT AVBL
ELBERTA*       NOT AVBL
FOLEY*         NOT AVBL
GRAND BAY*     NOT AVBL
DAUPHIN ISLND* NOT AVBL
BON SCOUR NWR* NOT AVBL
GULF SHORES    CLEAR     49  26  40 NW6       30.23R

$$

ALZ051>060-070100-
INTERIOR SOUTHWEST AND SOUTH CENTRAL ALABAMA

CITY           SKY/WX    TMP DP  RH WIND       PRES   REMARKS
GREENVILLE     NOT AVBL
EVERGREEN      CLEAR     45  24  43 CALM      30.24S
6HR MIN TEMP:  45; 6HR MAX TEMP:  56;

CASTLEBERRY*   NOT AVBL
ATMORE*        NOT AVBL
DIXIE*         NOT AVBL
ANDALUSIA/OPP  PTCLDY    52  24  33 N5        30.22
6HR MIN TEMP:  52; 6HR MAX TEMP:  61;

ANDALUSIA*     NOT AVBL
FLORALA APT    NOT AVBL
FLORALA*       NOT AVBL

$$

FLZ001>006-070100-
WESTERN FLORIDA PANHANDLE

CITY           SKY/WX    TMP DP  RH WIND       PRES   REMARKS
PENSACOLA      CLEAR     50  23  34 NW7       30.22R
6HR MIN TEMP:  50; 6HR MAX TEMP:  59;

NAS PENSACOLA  CLEAR     47  31  53 CALM      30.22S
6HR MIN TEMP:  47; 6HR MAX TEMP:  60; 6HR PCP: TRACE;

MILTON         CLEAR     49  22  34 N6        30.22R
6HR MIN TEMP:  49; 6HR MAX TEMP:  58;

WHTNG S FIELD  CLEAR     51  22  31 N7        30.22R
6HR MIN TEMP:  51; 6HR MAX TEMP:  61;



CITY           SKY/WX    TMP DP  RH WIND       PRES   REMARKS
WALNUT HILL*   NOT AVBL
JAY*           NOT AVBL
DUKE FIELD     CLEAR     48  28  46 NW5       30.20S
CRESTVIEW      PTCLDY    49  27  42 NW6       30.23S
6HR MIN TEMP:  49; 6HR MAX TEMP:  60;

VALPARAISO     PTCLDY    50  29  44 N6        30.19S
6HR MIN TEMP:  50; 6HR MAX TEMP:  59;

DESTIN         CLEAR     53  32  44 CALM      30.20S
6HR MIN TEMP:  53; 6HR MAX TEMP:  60;


$$

MSZ076-079-070100-
INTERIOR SOUTHEAST MISSISSIPPI

CITY           SKY/WX    TMP DP  RH WIND       PRES   REMARKS
LEAKESVILLE*   NOT AVBL
AGRICOLA*      NOT AVBL

$$

MARINE OBSERVATIONS

STATION/POSITION TIME  TEMP    WIND        PRES    WAVE
                       AIR SEA DIR/SP/G            HT/PER
                 (UTC) (F)     (DEG/KT/KT) (MB)    (FT/S)
PASCAGOULA       2300   52     240/  4/  6 1023.7F
PETIT BOIS ISLND 2300   52     240/  6/  7 1024.5F
GRAND BAY        2200   54     230/  5     1025.0S
KATRINA CUT      2300   52     260/  7       N/A
CEDAR POINT      2300   54     330/  4     1023.4S
E DAUPHIN ISLAND 2300   54      10/  9/  9 1023.4S
MIDDLE BAY LIGHT 2300           20/ 12     1023.4R
USCG MOBILE BAY  2300   54 53   40/  7/ 11 1024.0F
STATE DOCKS      2300   55                 1023.4F
MEAHER PARK      2300   54      10/  5     1023.7F
WEEKS BAY        2200   54                   N/A
FORT MORGAN      2300   54      10/ 10/ 11 1023.0S
12 S ORANGE BCH  2350   55 62  310/  8/ 12 1022.6F   1/ 5
PENSACOLA BAY    2300   59 54  310/  4/  7 1023.3R

$$

SELECTED LOCATIONS ACROSS THE REGION

CITY           SKY/WX    TMP DP  RH WIND       PRES   REMARKS
NEW ORLEANS    CLOUDY    52  21  29 W3        30.26S
GULFPORT       CLOUDY    50  31  48 CALM      30.25R
PASCAGOULA AP  CLEAR     49  34  56 CALM      30.25R
PASCAGOULA*    NOT AVBL
HATTIESBURG    CLEAR     50  22  33 CALM      30.27R
LAUREL         CLEAR     45  25  45 N5        30.27S
MERIDIAN       CLEAR     45  21  38 N6        30.28R
JACKSON        PTCLDY    47  25  42 CALM      30.28R
MONTGOMERY     CLEAR     48  19  31 NW3       30.25S
TROY           PTCLDY    48  27  44 NW5       30.24R
KINSTON*       NOT AVBL
GENEVA*        NOT AVBL
ASHFORD*       NOT AVBL
DOTHAN         CLEAR     48  31  51 N3        30.24S
PANAMA CITY    CLEAR     49  33  54 NW3       30.19S

$$




USA.gov is the U.S. government's official web portal to all federal, state and local government web resources and services.